Location: Rounton
(54.4000°N, 1.3500°W)
Time: 03:06:30
(UTC+00:00)

Envisat - Pass Details

Date: 28 October 2021
Orbit: 764 x 766 km, 98.2° (Epoch: 28 November)

Event Time Altitude Azimuth Distance (km) Brightness Sun altitude
Rises 04:27:42 0° 30° (NNE) 3,246 6.9 -30.9°
Reaches altitude 10° 04:32:16 10° 68° (ENE) 2,311 6.4 -30.3°
Maximum altitude 04:33:24 11° 81° (E) 2,262 6.3 -30.1°
Drops below altitude 10° 04:34:32 10° 94° (E) 2,307 6.2 -30.0°
Sets 04:39:03 0° 132° (SE) 3,224 6.6 -29.4°
